Tracking 35331 objects as of 14-Sep-2026
HD Live streaming from Space Station
objects crossing your sky now

CREW DRAGON DEMO-1 DEB


CREW DRAGON DEMO-1 DEB is no longer on orbit


NORAD ID: 44064
Int'l Code: 2019-011B
Launch date: March 2, 2019
Source: United States (US)
Launch site: AIR FORCE EASTERN TEST RANGE (AFETR)
Decay date: 2021-07-20

Note: This is SATELLITE DEBRIS
Your satellite tracking list
Your tracking list is empty




NASA's NSSDC Master Catalog

Two Line Element Set (TLE):
1 44064U 19011B   21200.88031934  .06113351  12365-4  50191-3 0  9991
2 44064  51.6051  60.7312 0011883 271.9116  88.0549 16.38696548135644
Source of the keplerian elements: AFSPC